Погода в Верхнем Талызине

Россия / Нижегородская область     55°06′03″N   45°50′24″E
темп.,
°C
ветер,
м/с
пор.,
м/с
влажн.,
%
обл.,
%
осадки,
мм/ч
давл.,
гПа
погр.,
м
19 апреля, пн
пн1900:00+6всв5127699 0.0 1023580
03:00+4всв51164100 0.0 1024425
06:00+3всв61365100 0.0 1024448
09:00+5в81055100 0.0 1025739
12:00+7в91042100 0.0 10251193
15:00+8в911455 0.0 10251350
18:00+7в7115376 0.0 10251359
21:00+6в61159100 0.0 10261147
20 апреля, вт
вт2000:00+5в7126398 0.0 10261076
03:00+2в614625 0.0 1026616
06:00+2в7156510 0.0 1026723
09:00+6вюв8134765 0.0 1027976
12:00+9вюв1012405 0.0 10251290
15:00+10вюв91240100 0.0 10241361
18:00+8вюв81344100 0.0 10231222
21:00+7вюв91643100 0.0 10211076
21 апреля, ср
ср2100:00+6юв101847100 0.0 10191027
03:00+4юв112171100 1.9 1016901
06:00+3юв112080100 1.5 1015953
09:00+4юв101986100 2.4 1014914
12:00+5ююв101884100 0.0 1013991
15:00+6ююв91886100 0.0 10141089
18:00+6ю71291100 0.1 1016915
21:00+6ю4989100 0.4 1018424
22 апреля, чт
чт2200:00+5ю51094100 0.1 1019442
03:00+5ю369781 0.2 1020204
06:00+6ююв479573 0.0 1020300
09:00+8ю5782100 0.0 1021607
12:00+11ююз467284 0.1 1021982
15:00+12ю566782 0.2 1021820
18:00+11ююв487211 0.0 1022350
21:00+8ююв39887 0.1 1023195
23 апреля, пт
пт2300:00+7ююв36946 0.0 1023111
03:00+6ююв229368 0.0 102334
06:00+7ююв3592100 0.0 1023120
09:00+11ююв457498 0.0 1023379
12:00+15ююв334812 0.4 10221563
15:00+14ююв445471 1.8 10211286
18:00+12юв4771100 1.6 1020534
21:00+9юв3881100 1.9 1020232